QPF
0.01 0.01 0.02 0.02 0.02 0.02 0.03 0.03 0.02 0.02 0.04 0.04 0.02 0.02 0.02 0.02 0.02 0.01 0.01 0.02 0.02 0.02 0.03 0.02 0.02 0.02 0.01 0.01 0.01 0.02 0.02 0.02 0.03 0.03 0.02 0.02 0.02 0.01 0.01 0.01 0.01 0.01 0.01
0.01 0.00 0.01 0.01 0.01 0.03 0.05 0.08 0.07 0.03 0.02 0.03 0.02 0.02 0.02 0.03 0.03 0.02 0.02 0.02 0.02 0.03 0.03 0.03 0.03 0.02 0.01 0.01 0.01 0.02 0.03 0.03 0.04 0.04 0.05 0.04 0.04 0.03 0.03 0.02 0.02 0.02 0.02
0.01 0.01 0.01 0.01 0.02 0.04 0.04 0.05 0.06 0.05 0.03 0.02 0.04 0.05 0.03 0.02 0.02 0.01 0.01 0.01 0.01 0.01 0.01 0.01 0.02 0.02 0.02 0.02 0.03 0.03 0.03 0.03 0.04 0.04 0.05 0.05 0.04 0.04 0.03 0.03 0.03 0.03 0.03
0.01 0.02 0.02 0.02 0.02 0.02 0.03 0.05 0.06 0.05 0.04 0.03 0.03 0.04 0.03 0.02 0.02 0.01 0.01 0.01 0.01 0.00 0.00 0.00 0.00 0.00 0.00 0.01 0.01 0.02 0.02 0.02 0.03 0.03 0.04 0.04 0.04 0.04 0.04 0.03 0.03 0.03 0.03
0.04 0.04 0.04 0.03 0.02 0.02 0.03 0.03 0.04 0.05 0.03 0.03 0.03 0.03 0.03 0.02 0.02 0.01 0.01 0.01 0.00 0.00 0.00 0.00 0.00 0.00 0.00 0.00 0.01 0.01 0.01 0.01 0.01 0.02 0.02 0.02 0.02 0.02 0.01 0.01 0.02 0.02 0.03
0.06 0.05 0.04 0.03 0.02 0.02 0.02 0.02 0.03 0.04 0.03 0.03 0.03 0.03 0.02 0.01 0.01 0.01 0.00 0.00 0.00 0.00 0.00 0.00 0.00 0.00 0.00 0.00 0.00 0.00 0.00 0.00 0.00 0.00 0.00 0.00 0.00 0.00 0.00 0.00 0.00 0.01 0.01
0.06 0.04 0.03 0.02 0.02 0.02 0.01 0.02 0.02 0.03 0.03 0.02 0.02 0.01 0.01 0.01 0.01 0.00 0.00 0.00 0.00 0.00 0.00 0.00 0.00 0.00 0.00 0.00 0.00 0.00 0.00 0.00 0.00 0.00 0.00 0.00 0.00 0.00 0.00 0.00 0.00 0.00 0.00
0.07 0.05 0.03 0.02 0.02 0.01 0.02 0.02 0.02 0.02 0.01 0.01 0.01 0.01 0.01 0.01 0.00 0.00 0.00 0.00 0.00 0.00 0.00 0.00 0.00 0.00 0.00 0.00 0.00 0.00 0.00 0.00 0.00 0.00 0.00 0.00 0.00 0.00 0.00 0.00 0.00 0.00 0.00
0.09 0.07 0.05 0.04 0.03 0.02 0.02 0.02 0.02 0.02 0.02 0.01 0.01 0.01 0.01 0.01 0.01 0.00 0.00 0.00 0.00 0.00 0.00 0.00 0.00 0.00 0.00 0.00 0.00 0.00 0.00 0.00 0.00 0.00 0.00 0.00 0.00 0.00 0.00 0.00 0.00 0.00 0.00
0.13 0.10 0.08 0.06 0.04 0.03 0.02 0.01 0.01 0.01 0.01 0.01 0.01 0.01 0.00 0.00 0.00 0.00 0.00 0.00 0.00 0.00 0.00 0.00 0.00 0.00 0.00 0.00 0.00 0.00 0.00 0.00 0.00 0.00 0.00 0.00 0.00 0.00 0.00 0.00 0.00 0.00 0.00
0.14 0.12 0.08 0.05 0.03 0.02 0.01 0.01 0.00 0.00 0.00 0.00 0.00 0.00 0.00 0.00 0.00 0.00 0.00 0.00 0.00 0.00 0.00 0.00 0.00 0.00 0.00 0.00 0.00 0.00 0.00 0.00 0.00 0.00 0.00 0.00 0.00 0.00 0.00 0.00 0.00 0.00 0.00
0.15 0.10 0.06 0.03 0.02 0.01 0.01 0.01 0.00 0.00 0.00 0.00 0.00 0.00 0.00 0.00 0.00 0.00 0.00 0.00 0.00 0.00 0.00 0.00 0.00 0.00 0.00 0.00 0.00 0.00 0.00 0.00 0.00 0.00 0.00 0.00 0.00 0.00 0.00 0.00 0.00 0.00 0.01
0.13 0.08 0.06 0.04 0.03 0.02 0.01 0.01 0.00 0.00 0.00 0.00 0.00 0.00 0.00 0.00 0.00 0.00 0.00 0.00 0.00 0.00 0.00 0.00 0.00 0.00 0.00 0.00 0.00 0.00 0.00 0.00 0.00 0.00 0.00 0.00 0.00 0.00 0.00 0.00 0.00 0.01 0.01
0.11 0.07 0.05 0.04 0.02 0.01 0.01 0.01 0.00 0.00 0.00 0.00 0.00 0.00 0.00 0.00 0.00 0.00 0.00 0.00 0.00 0.00 0.00 0.00 0.00 0.00 0.00 0.00 0.00 0.00 0.00 0.00 0.00 0.00 0.00 0.00 0.00 0.00 0.00 0.00 0.00 0.00 0.01
0.05 0.04 0.02 0.02 0.01 0.01 0.01 0.00 0.00 0.00 0.00 0.00 0.00 0.00 0.00 0.00 0.00 0.00 0.00 0.00 0.00 0.00 0.00 0.00 0.00 0.00 0.00 0.00 0.00 0.00 0.00 0.00 0.00 0.00 0.00 0.00 0.00 0.00 0.00 0.00 0.00 0.01 0.01
0.02 0.01 0.01 0.01 0.01 0.00 0.00 0.00 0.00 0.00 0.00 0.00 0.00 0.00 0.00 0.00 0.00 0.00 0.00 0.00 0.00 0.00 0.00 0.00 0.00 0.00 0.00 0.00 0.00 0.00 0.00 0.00 0.00 0.00 0.00 0.00 0.00 0.00 0.00 0.01 0.01 0.01 0.01
0.00 0.00 0.00 0.00 0.00 0.00 0.00 0.00 0.00 0.00 0.00 0.00 0.00 0.00 0.00 0.00 0.00 0.00 0.00 0.00 0.00 0.00 0.00 0.00 0.00 0.00 0.00 0.00 0.00 0.00 0.00 0.00 0.00 0.00 0.00 0.00 0.00 0.00 0.01 0.01 0.01 0.01 0.01
0.00 0.00 0.00 0.00 0.00 0.00 0.00 0.00 0.00 0.00 0.00 0.00 0.00 0.00 0.00 0.00 0.00 0.00 0.00 0.00 0.00 0.00 0.00 0.00 0.00 0.00 0.00 0.00 0.00 0.00 0.00 0.00 0.00 0.00 0.00 0.00 0.00 0.01 0.01 0.01 0.01 0.01 0.01
0.00 0.00 0.00 0.00 0.00 0.00 0.00 0.00 0.00 0.00 0.00 0.00 0.00 0.00 0.00 0.00 0.00 0.00 0.00 0.00 0.00 0.00 0.00 0.00 0.00 0.00 0.00 0.00 0.00 0.00 0.00 0.00 0.00 0.00 0.00 0.00 0.00 0.00 0.00 0.00 0.00 0.00 0.00
0.00 0.00 0.00 0.00 0.00 0.00 0.00 0.00 0.00 0.00 0.00 0.00 0.00 0.00 0.00 0.00 0.00 0.00 0.00 0.00 0.00 0.00 0.00 0.00 0.00 0.00 0.00 0.00 0.00 0.00 0.00 0.00 0.00 0.00 0.00 0.00 0.00 0.00 0.00 0.00 0.00 0.01 0.00
0.00 0.00 0.00 0.00 0.00 0.00 0.00 0.00 0.00 0.00 0.00 0.00 0.00 0.00 0.00 0.00 0.00 0.00 0.00 0.00 0.00 0.00 0.00 0.00 0.00 0.00 0.00 0.00 0.00 0.01 0.01 0.00 0.00 0.00 0.00 0.00 0.00 0.00 0.00 0.00 0.00 0.01 0.01
0.00 0.00 0.00 0.00 0.00 0.00 0.00 0.00 0.00 0.00 0.00 0.00 0.00 0.00 0.00 0.00 0.00 0.00 0.00 0.00 0.00 0.00 0.00 0.00 0.01 0.01 0.00 0.01 0.01 0.01 0.01 0.01 0.01 0.00 0.00 0.00 0.00 0.00 0.00 0.00 0.00 0.00 0.00
0.00 0.00 0.00 0.00 0.00 0.00 0.00 0.00 0.00 0.00 0.00 0.00 0.00 0.00 0.00 0.00 0.00 0.00 0.00 0.00 0.00 0.00 0.00 0.01 0.01 0.01 0.01 0.01 0.02 0.01 0.01 0.01 0.01 0.00 0.01 0.00 0.00 0.00 0.00 0.00 0.00 0.00 0.01
0.00 0.00 0.00 0.00 0.00 0.00 0.00 0.00 0.00 0.00 0.00 0.00 0.00 0.00 0.00 0.00 0.00 0.00 0.00 0.00 0.00 0.00 0.00 0.01 0.01 0.01 0.01 0.01 0.01 0.01 0.01 0.01 0.01 0.00 0.01 0.01 0.00 0.00 0.00 0.00 0.00 0.01 0.01
0.01 0.01 0.00 0.00 0.00 0.00 0.00 0.00 0.00 0.00 0.00 0.00 0.00 0.00 0.00 0.00 0.00 0.00 0.00 0.00 0.00 0.00 0.00 0.00 0.00 0.00 0.00 0.01 0.01 0.01 0.01 0.02 0.02 0.01 0.01 0.01 0.00 0.00 0.00 0.00 0.00 0.00 0.00
0.01 0.01 0.01 0.00 0.00 0.00 0.00 0.00 0.00 0.00 0.00 0.00 0.00 0.00 0.00 0.00 0.00 0.00 0.00 0.00 0.00 0.00 0.00 0.00 0.00 0.00 0.00 0.01 0.01 0.01 0.01 0.02 0.02 0.03 0.02 0.02 0.02 0.01 0.01 0.00 0.00 0.00 0.00
MSLP
1016.53 1016.76 1016.95 1017.09 1017.20 1017.30 1017.38 1017.46 1017.54 1017.62 1017.70 1017.79 1017.90 1018.03 1018.18 1018.36 1018.56 1018.79 1019.02 1019.25 1019.48 1019.69 1019.90 1020.09 1020.27 1020.45 1020.61 1020.76 1020.89 1020.98 1021.06 1021.10 1021.11 1021.11 1021.10 1021.10 1021.10 1021.11 1021.12 1021.13 1021.12 1021.09 1021.05
1016.36 1016.59 1016.81 1017.01 1017.20 1017.38 1017.54 1017.70 1017.84 1017.96 1018.08 1018.19 1018.30 1018.43 1018.57 1018.72 1018.89 1019.07 1019.26 1019.45 1019.65 1019.85 1020.05 1020.25 1020.45 1020.64 1020.82 1020.97 1021.10 1021.18 1021.23 1021.24 1021.23 1021.22 1021.20 1021.19 1021.20 1021.21 1021.21 1021.21 1021.18 1021.12 1021.05
1016.18 1016.42 1016.68 1016.95 1017.23 1017.51 1017.78 1018.03 1018.25 1018.44 1018.59 1018.73 1018.85 1018.97 1019.09 1019.21 1019.33 1019.45 1019.58 1019.72 1019.86 1020.02 1020.19 1020.37 1020.57 1020.76 1020.94 1021.09 1021.20 1021.27 1021.30 1021.30 1021.28 1021.26 1021.25 1021.25 1021.27 1021.30 1021.32 1021.32 1021.29 1021.22 1021.12
1016.04 1016.29 1016.60 1016.94 1017.32 1017.70 1018.07 1018.41 1018.71 1018.95 1019.15 1019.31 1019.45 1019.56 1019.65 1019.73 1019.80 1019.86 1019.92 1019.98 1020.06 1020.15 1020.27 1020.41 1020.58 1020.75 1020.92 1021.06 1021.16 1021.22 1021.25 1021.24 1021.22 1021.20 1021.21 1021.23 1021.28 1021.34 1021.39 1021.42 1021.40 1021.34 1021.23
1015.97 1016.24 1016.59 1017.00 1017.45 1017.92 1018.38 1018.79 1019.14 1019.43 1019.66 1019.85 1019.99 1020.09 1020.17 1020.22 1020.25 1020.25 1020.23 1020.22 1020.21 1020.23 1020.28 1020.36 1020.48 1020.62 1020.76 1020.89 1020.98 1021.03 1021.06 1021.05 1021.05 1021.05 1021.08 1021.14 1021.23 1021.32 1021.41 1021.46 1021.47 1021.42 1021.31
1016.04 1016.32 1016.70 1017.15 1017.66 1018.17 1018.67 1019.12 1019.50 1019.82 1020.07 1020.26 1020.41 1020.52 1020.59 1020.62 1020.62 1020.57 1020.50 1020.41 1020.33 1020.26 1020.24 1020.26 1020.32 1020.41 1020.52 1020.62 1020.70 1020.75 1020.78 1020.79 1020.81 1020.84 1020.90 1020.99 1021.11 1021.24 1021.36 1021.44 1021.47 1021.43 1021.33
1016.27 1016.56 1016.95 1017.42 1017.93 1018.46 1018.96 1019.40 1019.78 1020.09 1020.33 1020.53 1020.69 1020.81 1020.89 1020.93 1020.92 1020.85 1020.74 1020.60 1020.45 1020.31 1020.21 1020.16 1020.16 1020.20 1020.26 1020.34 1020.41 1020.46 1020.50 1020.52 1020.56 1020.62 1020.70 1020.82 1020.96 1021.11 1021.24 1021.33 1021.37 1021.34 1021.24
1016.68 1016.97 1017.36 1017.81 1018.30 1018.79 1019.25 1019.65 1019.98 1020.26 1020.49 1020.69 1020.86 1021.01 1021.12 1021.18 1021.19 1021.13 1021.00 1020.83 1020.64 1020.44 1020.28 1020.16 1020.09 1020.07 1020.10 1020.14 1020.19 1020.23 1020.27 1020.31 1020.36 1020.43 1020.53 1020.66 1020.80 1020.94 1021.06 1021.15 1021.18 1021.14 1021.03
1017.26 1017.55 1017.92 1018.33 1018.77 1019.19 1019.58 1019.90 1020.18 1020.41 1020.61 1020.80 1020.99 1021.18 1021.33 1021.44 1021.49 1021.46 1021.35 1021.17 1020.95 1020.71 1020.50 1020.31 1020.18 1020.11 1020.08 1020.09 1020.10 1020.14 1020.17 1020.20 1020.25 1020.32 1020.41 1020.52 1020.64 1020.75 1020.84 1020.90 1020.89 1020.83 1020.70
1017.96 1018.25 1018.59 1018.96 1019.33 1019.67 1019.97 1020.21 1020.41 1020.59 1020.77 1020.96 1021.17 1021.39 1021.60 1021.77 1021.87 1021.88 1021.80 1021.63 1021.41 1021.15 1020.89 1020.66 1020.47 1020.34 1020.25 1020.20 1020.18 1020.17 1020.18 1020.20 1020.22 1020.27 1020.33 1020.40 1020.47 1020.54 1020.57 1020.57 1020.52 1020.42 1020.27
1018.71 1019.01 1019.33 1019.66 1019.96 1020.23 1020.44 1020.61 1020.74 1020.87 1021.02 1021.21 1021.44 1021.70 1021.95 1022.17 1022.33 1022.39 1022.34 1022.20 1021.98 1021.71 1021.43 1021.15 1020.91 1020.72 1020.57 1020.46 1020.38 1020.32 1020.27 1020.25 1020.23 1020.23 1020.25 1020.26 1020.28 1020.27 1020.24 1020.17 1020.06 1019.91 1019.73
1019.45 1019.76 1020.07 1020.37 1020.64 1020.85 1021.00 1021.10 1021.19 1021.28 1021.41 1021.59 1021.82 1022.10 1022.38 1022.64 1022.84 1022.94 1022.93 1022.81 1022.61 1022.34 1022.04 1021.74 1021.45 1021.20 1020.98 1020.79 1020.63 1020.50 1020.39 1020.30 1020.22 1020.16 1020.11 1020.06 1020.01 1019.94 1019.83 1019.70 1019.53 1019.33 1019.11
1020.12 1020.45 1020.78 1021.07 1021.32 1021.50 1021.62 1021.69 1021.74 1021.80 1021.91 1022.07 1022.30 1022.57 1022.86 1023.13 1023.34 1023.46 1023.47 1023.38 1023.20 1022.95 1022.64 1022.32 1021.99 1021.68 1021.39 1021.12 1020.88 1020.66 1020.46 1020.28 1020.13 1020.00 1019.88 1019.77 1019.65 1019.51 1019.34 1019.14 1018.92 1018.68 1018.43
1020.71 1021.08 1021.43 1021.74 1021.99 1022.16 1022.27 1022.33 1022.36 1022.41 1022.48 1022.62 1022.81 1023.05 1023.31 1023.55 1023.75 1023.87 1023.90 1023.83 1023.67 1023.44 1023.14 1022.81 1022.46 1022.10 1021.74 1021.39 1021.05 1020.73 1020.43 1020.16 1019.93 1019.72 1019.53 1019.35 1019.17 1018.98 1018.76 1018.51 1018.24 1017.96 1017.68
1021.24 1021.64 1022.02 1022.36 1022.63 1022.82 1022.94 1023.00 1023.02 1023.04 1023.08 1023.16 1023.30 1023.47 1023.66 1023.86 1024.01 1024.11 1024.14 1024.09 1023.95 1023.75 1023.48 1023.16 1022.80 1022.40 1021.98 1021.55 1021.12 1020.69 1020.29 1019.93 1019.61 1019.32 1019.07 1018.83 1018.60 1018.36 1018.10 1017.82 1017.52 1017.21 1016.90
1021.74 1022.18 1022.59 1022.96 1023.25 1023.46 1023.59 1023.65 1023.65 1023.64 1023.63 1023.65 1023.70 1023.78 1023.89 1024.00 1024.10 1024.16 1024.17 1024.13 1024.03 1023.86 1023.63 1023.34 1022.98 1022.56 1022.09 1021.59 1021.07 1020.55 1020.06 1019.60 1019.19 1018.83 1018.52 1018.24 1017.97 1017.70 1017.41 1017.10 1016.77 1016.44 1016.11
1022.27 1022.72 1023.16 1023.54 1023.85 1024.07 1024.20 1024.24 1024.23 1024.17 1024.10 1024.04 1023.99 1023.97 1023.97 1023.98 1024.01 1024.02 1024.02 1023.99 1023.92 1023.79 1023.60 1023.34 1023.00 1022.57 1022.07 1021.52 1020.93 1020.33 1019.75 1019.21 1018.73 1018.32 1017.95 1017.63 1017.33 1017.04 1016.72 1016.39 1016.04 1015.67 1015.32
1022.86 1023.30 1023.73 1024.11 1024.41 1024.62 1024.74 1024.76 1024.71 1024.61 1024.47 1024.32 1024.17 1024.04 1023.94 1023.86 1023.80 1023.77 1023.75 1023.72 1023.67 1023.58 1023.44 1023.21 1022.89 1022.46 1021.95 1021.36 1020.72 1020.06 1019.41 1018.81 1018.28 1017.81 1017.41 1017.05 1016.73 1016.41 1016.07 1015.72 1015.34 1014.95 1014.56
1023.49 1023.90 1024.30 1024.64 1024.92 1025.10 1025.18 1025.18 1025.09 1024.93 1024.72 1024.50 1024.26 1024.04 1023.84 1023.67 1023.55 1023.46 1023.41 1023.38 1023.35 1023.29 1023.17 1022.97 1022.67 1022.25 1021.73 1021.12 1020.45 1019.75 1019.07 1018.42 1017.85 1017.35 1016.92 1016.54 1016.19 1015.84 1015.49 1015.10 1014.69 1014.27 1013.85
1024.13 1024.49 1024.83 1025.12 1025.34 1025.47 1025.52 1025.47 1025.34 1025.14 1024.89 1024.60 1024.30 1024.00 1023.73 1023.49 1023.30 1023.17 1023.08 1023.03 1022.99 1022.93 1022.83 1022.64 1022.35 1021.94 1021.42 1020.81 1020.13 1019.42 1018.71 1018.05 1017.46 1016.94 1016.49 1016.09 1015.72 1015.35 1014.96 1014.55 1014.10 1013.64 1013.19
1024.71 1025.01 1025.27 1025.49 1025.64 1025.72 1025.72 1025.63 1025.48 1025.25 1024.97 1024.65 1024.31 1023.97 1023.64 1023.35 1023.11 1022.92 1022.79 1022.70 1022.63 1022.55 1022.43 1022.23 1021.94 1021.54 1021.02 1020.42 1019.74 1019.04 1018.35 1017.70 1017.11 1016.59 1016.13 1015.71 1015.32 1014.92 1014.50 1014.05 1013.57 1013.07 1012.58
1025.18 1025.40 1025.58 1025.72 1025.81 1025.83 1025.79 1025.68 1025.51 1025.27 1024.99 1024.67 1024.32 1023.96 1023.60 1023.27 1022.98 1022.73 1022.54 1022.38 1022.26 1022.12 1021.96 1021.74 1021.43 1021.02 1020.52 1019.94 1019.30 1018.63 1017.97 1017.35 1016.78 1016.27 1015.81 1015.38 1014.97 1014.54 1014.09 1013.60 1013.07 1012.54 1012.01
1025.49 1025.63 1025.74 1025.81 1025.84 1025.82 1025.74 1025.62 1025.46 1025.24 1024.98 1024.67 1024.34 1023.98 1023.60 1023.24 1022.89 1022.58 1022.31 1022.08 1021.86 1021.66 1021.43 1021.17 1020.83 1020.42 1019.94 1019.39 1018.80 1018.18 1017.58 1017.00 1016.46 1015.98 1015.53 1015.09 1014.66 1014.20 1013.71 1013.18 1012.61 1012.03 1011.47
1025.65 1025.73 1025.77 1025.78 1025.76 1025.71 1025.62 1025.51 1025.36 1025.17 1024.94 1024.67 1024.36 1024.00 1023.62 1023.22 1022.83 1022.44 1022.08 1021.75 1021.44 1021.15 1020.85 1020.53 1020.17 1019.77 1019.31 1018.81 1018.27 1017.73 1017.19 1016.67 1016.18 1015.72 1015.27 1014.83 1014.37 1013.88 1013.35 1012.78 1012.18 1011.56 1010.96
1025.69 1025.72 1025.72 1025.70 1025.64 1025.58 1025.49 1025.38 1025.26 1025.10 1024.91 1024.66 1024.37 1024.02 1023.63 1023.19 1022.73 1022.27 1021.82 1021.38 1020.98 1020.60 1020.23 1019.86 1019.49 1019.10 1018.68 1018.24 1017.78 1017.31 1016.84 1016.38 1015.94 1015.50 1015.06 1014.60 1014.12 1013.59 1013.03 1012.41 1011.77 1011.12 1010.50
1025.69 1025.69 1025.66 1025.61 1025.55 1025.47 1025.38 1025.29 1025.18 1025.04 1024.87 1024.65 1024.36 1024.01 1023.58 1023.11 1022.59 1022.04 1021.50 1020.98 1020.49 1020.03 1019.61 1019.22 1018.85 1018.49 1018.12 1017.74 1017.36 1016.97 1016.57 1016.17 1015.76 1015.33 1014.89 1014.42 1013.90 1013.34 1012.73 1012.08 1011.41 1010.73 1010.07
Thickness
5750 5747 5744 5740 5737 5733 5729 5726 5722 5719 5716 5713 5712 5711 5709 5705 5703 5700 5698 5696 5694 5692 5690 5688 5687 5685 5683 5682 5681 5679 5678 5677 5676 5675 5674 5673 5672 5671 5670 5670 5669 5668 5668
5750 5746 5742 5738 5735 5731 5727 5723 5719 5715 5711 5708 5706 5704 5702 5699 5696 5694 5692 5689 5687 5685 5683 5681 5679 5678 5676 5675 5674 5672 5671 5670 5669 5668 5667 5666 5665 5664 5664 5663 5662 5661 5661
5748 5744 5739 5736 5732 5729 5725 5720 5716 5712 5708 5704 5700 5697 5695 5692 5689 5687 5684 5682 5680 5678 5675 5673 5672 5670 5669 5667 5666 5665 5663 5662 5661 5660 5658 5657 5656 5655 5655 5654 5653 5653 5652
5745 5740 5736 5732 5728 5725 5721 5716 5711 5706 5702 5697 5693 5690 5687 5684 5682 5679 5677 5674 5672 5671 5669 5666 5664 5663 5661 5659 5658 5656 5655 5653 5652 5650 5649 5648 5646 5645 5644 5643 5642 5642 5642
5740 5736 5731 5727 5723 5720 5715 5711 5705 5701 5695 5691 5687 5683 5680 5678 5675 5672 5670 5667 5665 5663 5662 5659 5656 5655 5653 5650 5648 5646 5645 5643 5642 5640 5639 5637 5636 5634 5632 5631 5630 5630 5630
5734 5729 5724 5721 5717 5713 5708 5704 5698 5693 5688 5685 5682 5677 5674 5672 5669 5666 5663 5660 5658 5656 5654 5651 5649 5646 5644 5642 5640 5638 5635 5634 5632 5630 5628 5626 5624 5622 5620 5619 5617 5617 5617
5727 5722 5717 5714 5710 5706 5702 5697 5691 5686 5680 5678 5674 5670 5668 5666 5663 5659 5656 5653 5650 5648 5645 5643 5641 5638 5636 5634 5631 5629 5627 5625 5622 5620 5617 5614 5612 5609 5607 5606 5604 5603 5603
5717 5713 5709 5705 5701 5697 5693 5689 5685 5679 5673 5670 5667 5662 5657 5656 5654 5653 5649 5646 5643 5640 5637 5634 5631 5629 5627 5625 5622 5620 5618 5615 5613 5609 5606 5602 5599 5596 5593 5591 5590 5589 5588
5705 5702 5698 5694 5691 5687 5682 5679 5676 5672 5666 5660 5659 5655 5650 5646 5642 5641 5639 5636 5634 5630 5627 5625 5622 5620 5617 5615 5612 5609 5607 5605 5601 5598 5594 5590 5586 5583 5580 5577 5575 5573 5572
5693 5689 5686 5683 5680 5676 5672 5669 5666 5663 5658 5651 5648 5645 5641 5638 5633 5629 5627 5624 5622 5619 5616 5614 5611 5609 5606 5603 5600 5597 5594 5591 5587 5583 5578 5574 5570 5567 5564 5561 5558 5557 5556
5679 5676 5674 5670 5667 5663 5660 5657 5654 5651 5647 5642 5637 5633 5629 5625 5622 5617 5613 5610 5608 5606 5603 5600 5598 5596 5593 5590 5586 5582 5579 5574 5570 5565 5560 5556 5552 5549 5547 5544 5542 5541 5540
5665 5662 5659 5656 5653 5650 5647 5643 5640 5637 5633 5629 5625 5621 5617 5612 5608 5604 5599 5595 5591 5590 5588 5585 5582 5579 5576 5572 5568 5564 5559 5555 5550 5545 5541 5537 5534 5531 5529 5527 5525 5523 5523
5651 5648 5645 5642 5639 5636 5633 5630 5626 5622 5618 5614 5610 5605 5601 5597 5594 5590 5584 5579 5575 5573 5571 5568 5564 5561 5557 5553 5548 5544 5539 5535 5530 5526 5522 5519 5516 5514 5512 5510 5508 5506 5505
5638 5635 5632 5628 5625 5622 5619 5615 5611 5607 5602 5599 5595 5590 5586 5581 5578 5574 5568 5563 5557 5553 5551 5549 5546 5542 5538 5534 5530 5526 5521 5517 5513 5510 5506 5503 5500 5498 5496 5494 5492 5490 5489
5626 5621 5618 5614 5610 5607 5603 5600 5595 5590 5586 5582 5578 5574 5569 5565 5561 5557 5552 5547 5541 5535 5530 5529 5526 5524 5520 5516 5513 5509 5505 5501 5498 5494 5491 5488 5485 5483 5481 5479 5477 5475 5474
5611 5607 5603 5599 5595 5591 5587 5583 5578 5573 5569 5565 5561 5557 5552 5548 5544 5540 5535 5531 5526 5520 5515 5512 5509 5507 5504 5500 5497 5494 5491 5488 5484 5481 5477 5474 5472 5469 5467 5465 5464 5462 5461
5596 5592 5588 5583 5578 5573 5569 5564 5559 5555 5551 5547 5544 5540 5536 5532 5528 5523 5519 5515 5510 5505 5499 5497 5494 5492 5489 5486 5484 5480 5478 5475 5472 5468 5465 5462 5460 5457 5456 5454 5452 5450 5450
5580 5575 5570 5564 5559 5553 5549 5545 5540 5536 5533 5529 5526 5523 5519 5517 5512 5508 5503 5498 5494 5490 5486 5482 5480 5477 5475 5472 5470 5467 5465 5462 5459 5456 5454 5451 5449 5447 5446 5444 5442 5441 5440
5563 5558 5552 5545 5539 5534 5530 5525 5521 5517 5514 5511 5509 5506 5503 5500 5496 5492 5488 5484 5480 5478 5473 5469 5468 5465 5463 5461 5459 5456 5454 5451 5448 5446 5444 5443 5441 5439 5437 5435 5434 5433 5433
5545 5539 5532 5526 5521 5516 5512 5508 5504 5500 5496 5494 5492 5490 5488 5485 5481 5478 5474 5470 5467 5463 5460 5457 5455 5454 5452 5451 5447 5445 5444 5442 5440 5438 5437 5435 5433 5431 5429 5428 5427 5427 5427
5527 5521 5515 5508 5503 5499 5495 5491 5487 5484 5480 5477 5476 5474 5473 5471 5469 5465 5462 5458 5455 5452 5449 5447 5446 5446 5445 5442 5439 5437 5437 5437 5435 5433 5431 5428 5426 5424 5422 5421 5421 5421 5421
5509 5504 5498 5492 5487 5483 5478 5475 5471 5467 5464 5461 5459 5458 5457 5456 5454 5451 5449 5447 5446 5444 5441 5439 5439 5440 5440 5437 5436 5434 5432 5431 5431 5429 5424 5422 5420 5418 5417 5416 5416 5416 5416
5491 5486 5481 5476 5470 5466 5462 5458 5455 5451 5448 5446 5444 5442 5442 5442 5440 5437 5436 5436 5436 5437 5437 5435 5435 5435 5435 5435 5434 5432 5429 5426 5424 5423 5419 5419 5417 5414 5414 5413 5413 5412 5412
5475 5470 5465 5460 5456 5452 5447 5443 5440 5436 5433 5431 5430 5429 5428 5429 5429 5427 5426 5427 5429 5432 5433 5433 5433 5434 5434 5434 5432 5429 5426 5424 5422 5420 5417 5414 5414 5411 5411 5410 5409 5408 5407
5461 5456 5451 5447 5442 5437 5434 5430 5426 5421 5418 5417 5417 5418 5418 5419 5420 5419 5419 5421 5424 5429 5433 5434 5434 5434 5435 5434 5432 5428 5425 5422 5421 5418 5416 5411 5410 5408 5407 5407 5406 5405 5404
5448 5444 5439 5434 5430 5425 5421 5418 5414 5409 5406 5405 5406 5408 5410 5411 5413 5415 5415 5417 5421 5427 5430 5433 5434 5435 5435 5434 5432 5428 5424 5420 5418 5416 5415 5410 5408 5405 5406 5404 5403 5403 5402